Location: Ferchesar
(52.6477°N, 12.4298°E)
Time: 15:36:58
(UTC+01:00)

Vanguard 3 - Pass Details

Date: 06 December 2021
Orbit: 508 x 3260 km, 33.3° (Epoch: 25 January)

Event Time Altitude Azimuth Distance (km) Brightness Sun altitude
Rises 07:14:31 0° 263° (W) 7,222 11.5 -7.4°
Reaches altitude 10° 07:20:21 10° 255° (WSW) 6,095 11.2 -6.6°
Maximum altitude 07:35:01 31° 204° (SSW) 3,870 10.7 -4.7°
Drops below altitude 10° 07:45:39 10° 149° (SSE) 4,379 12.2 -3.3°
Sets 07:49:02 0° 139° (SE) 5,004 13.2 -2.9°
